Rbgn^[z[y[W
メイン
   新天体発見情報
     Comet P/2018 VN2 (Leonard)
投稿するにはまず登録を

スレッド表示 | 新しいものから 前のトピック | 次のトピック | 下へ
投稿者 スレッド
佐藤裕久
投稿日時: 2018-11-26 21:36
モデレータ
登録日: 2005-6-12
居住地: 日本
投稿: 1928
オンライン
Comet P/2018 VN2 (Leonard)

G. J. Leonardの通報によると、11月5.4日UT、Mt Lemmonの1.5-m 反射望遠鏡で得た画像から
彗星を発見した。この天体は、シーイング約2"で得た30秒露出4枚を加算して見られるように、
拡散した3"-5"のコマを持ち、p.a. 約280-290°に幅の広い8"の尾が伸びていると
描写された。小惑星センターのNEOCP webpageに公表後、他のCCD位置観測者によって彗星状
と確認されたが、小惑星センターは誤って小惑星仮符号2018 VN2を不注意に割り当てしまった。
K. SarneczkyとA. Ordasi (Konkoly天文台:11月6.0日UT、Piszkesteto観測所の0.60-m Schmid
望遠鏡で得た120秒フィルターなしCCD画像の3枚スタックから、少し拡散したコマとp.a. 250-
290°に約20"の扇形の尾が見えた。11月7.96日、15.9日、16.9日と17.9日で得られたフォロー
アップ観測では、この彗星の頭部は毎晩近傍の恒星よりソフトに見えた)らCCD位置観測者に
よって彗星状と観測された。

発見位置は次のとおり、

     2018 UT             R.A. (2000) Decl.       Mag.   Observer
     Nov.  5.38223    4 32 06.97   +15 34 14.5   19.0   Leonard
           5.38661    4 32 06.84   +15 34 11.5   19.5     "
           5.39868    4 32 06.42   +15 34 03.8            "
           5.40791    4 32 06.09   +15 33 57.8            "

楕円軌道要素と位置推算表は次のとおり、

Orbital elements:
    P/2018 VN2 (Leonard)
T 2018 June 7.17028 TT                                  MPCW
q   2.1136940            (2000.0)            P               Q
n   0.12151287     Peri.  139.13693     +0.97218313     -0.06912872
a   4.0369609      Node   226.36907     +0.02786230     +0.98280169
e   0.4764145      Incl.   18.01015     +0.23255893     +0.17123685
P   8.11
From 41 observations 2018 Nov. 5-17.

Ephemeris:
    P/2018 VN2 (Leonard)
Date    TT    R. A. (2000) Decl.     Delta      r     Elong.  Phase   m1
2018 10 19    04 39 08.0 +18 40 00   1.5628  2.3688   134.3    17.5  19.7
...
2018 11 03    04 33 31.9 +16 00 36   1.5088  2.4225   150.6    11.6  19.7
...
2018 11 11    04 28 21.1 +14 32 14   1.5008  2.4525   159.4     8.2  19.8
...
2018 11 17    04 23 50.7 +13 27 11   1.5058  2.4755   165.5     5.7  19.8
2018 11 18    04 23 03.7 +13 16 34   1.5076  2.4794   166.4     5.4  19.8
2018 11 19    04 22 16.4 +13 06 03   1.5096  2.4833   167.3     5.0  19.8
...
2018 11 25    04 17 28.9 +12 05 11   1.5279  2.5070   170.6     3.7  19.9
...
2018 12 03    04 11 14.9 +10 51 51   1.5679  2.5392   167.4     4.9  20.0
...
2018 12 18    04 01 43.0 +09 06 48   1.6900  2.6013   152.2    10.2  20.3

(CBET 4573、MPEC 2018-W18)


スレッド表示 | 新しいものから 前のトピック | 次のトピック | トップ

投稿するにはまず登録を
 
© 1999 Tsutomu Seki.